When you browse on this site, cookies collect data to enhance your experience and personalize the content and advertising you see.
Visit our Privacy Policy to learn more. By continuing to use the site, you agree to this use of cookies and data.
  • Em Portugal
  • Lista de países
  • Para 7 dias
  • Temperatura da água
  • Mapa do tempo
  • Widgets de tempo
  • user-avatar
    Iniciar Sessão

    Previsão horária em Cork

    Hoje, 26 Agosto, Segunda-feira

    Tempo Temperatura Precipitação Vento Pressão Humidade
    00:00 +12°C° 0 mm 1 m/s 762 mmHg 94%
    01:00 +11°C° 0 mm 1 m/s 762 mmHg 94%
    02:00 +10°C° 0 mm 0 m/s 762 mmHg 94%
    03:00 +11°C° 0 mm 1 m/s 762 mmHg 94%
    04:00 +10°C° 0 mm 1 m/s 762 mmHg 95%
    05:00 +10°C° 0 mm 1 m/s 762 mmHg 95%
    06:00 +12°C° 0 mm 1 m/s 762 mmHg 91%
    07:00 +14°C° 0 mm 1 m/s 761 mmHg 86%
    08:00 +16°C° 0 mm 2 m/s 761 mmHg 81%
    09:00 +17°C° 0 mm 2 m/s 761 mmHg 77%
    10:00 +18°C° 0 mm 3 m/s 761 mmHg 72%
    11:00 +19°C° 0 mm 4 m/s 761 mmHg 67%
    12:00 +20°C° 0 mm 4 m/s 761 mmHg 69%
    13:00 +20°C° 0 mm 5 m/s 761 mmHg 70%
    14:00 +20°C° 0 mm 5 m/s 761 mmHg 72%
    15:00 +19°C° 0 mm 5 m/s 760 mmHg 75%
    16:00 +18°C° 0 mm 4 m/s 760 mmHg 78%
    17:00 +17°C° 0 mm 4 m/s 760 mmHg 81%
    18:00 +15°C° 0 mm 4 m/s 760 mmHg 85%
    19:00 +13°C° 0 mm 3 m/s 760 mmHg 90%
    20:00 +12°C° 0 mm 3 m/s 760 mmHg 95%
    21:00 +12°C° 0 mm 3 m/s 760 mmHg 95%
    22:00 +12°C° 0 mm 3 m/s 759 mmHg 95%
    23:00 +12°C° 0 mm 3 m/s 759 mmHg 95%

    Amanhã, 27 Agosto, Terça-feira

    Tempo Temperatura Precipitação Vento Pressão Humidade
    00:00 +13°C° 0.2 mm 3 m/s 759 mmHg 95%
    01:00 +13°C° 0.2 mm 4 m/s 758 mmHg 96%
    02:00 +14°C° 0.2 mm 4 m/s 758 mmHg 96%
    03:00 +14°C° 1.1 mm 4 m/s 758 mmHg 96%
    04:00 +14°C° 1.1 mm 4 m/s 758 mmHg 97%
    05:00 +14°C° 1.1 mm 4 m/s 758 mmHg 97%
    06:00 +15°C° 0.2 mm 4 m/s 757 mmHg 95%
    07:00 +15°C° 0.2 mm 5 m/s 757 mmHg 94%
    08:00 +15°C° 0.2 mm 5 m/s 757 mmHg 93%
    09:00 +16°C° 0.1 mm 5 m/s 757 mmHg 92%
    10:00 +16°C° 0.1 mm 6 m/s 757 mmHg 91%
    11:00 +16°C° 0.1 mm 6 m/s 757 mmHg 89%
    12:00 +16°C° 0.1 mm 6 m/s 756 mmHg 91%
    13:00 +16°C° 0.1 mm 6 m/s 756 mmHg 92%
    14:00 +16°C° 0.1 mm 6 m/s 756 mmHg 94%
    15:00 +16°C° 0 mm 6 m/s 756 mmHg 92%
    16:00 +16°C° 0 mm 5 m/s 756 mmHg 89%
    17:00 +16°C° 0 mm 5 m/s 756 mmHg 87%
    18:00 +15°C° 0.1 mm 4 m/s 756 mmHg 89%
    19:00 +14°C° 0.1 mm 3 m/s 756 mmHg 91%
    20:00 +14°C° 0.1 mm 2 m/s 757 mmHg 93%
    21:00 +14°C° 0.2 mm 2 m/s 757 mmHg 93%
    22:00 +13°C° 0.2 mm 1 m/s 757 mmHg 94%
    23:00 +13°C° 0.2 mm 1 m/s 756 mmHg 94%

    Depois de amanhã, 28 Agosto, Quarta-feira

    Tempo Temperatura Precipitação Vento Pressão Humidade
    00:00 +13°C° 0.1 mm 1 m/s 756 mmHg 94%
    01:00 +13°C° 0.1 mm 1 m/s 756 mmHg 93%
    02:00 +13°C° 0.1 mm 1 m/s 756 mmHg 93%
    03:00 +12°C° 0 mm 2 m/s 756 mmHg 92%
    04:00 +12°C° 0 mm 2 m/s 756 mmHg 91%
    05:00 +10°C° 0 mm 2 m/s 756 mmHg 90%
    06:00 +13°C° 0 mm 2 m/s 756 mmHg 85%
    07:00 +14°C° 0 mm 2 m/s 757 mmHg 80%
    08:00 +15°C° 0 mm 2 m/s 757 mmHg 75%
    09:00 +16°C° 0 mm 2 m/s 757 mmHg 69%
    10:00 +17°C° 0 mm 2 m/s 757 mmHg 64%
    11:00 +18°C° 0 mm 3 m/s 757 mmHg 58%
    12:00 +18°C° 0 mm 3 m/s 757 mmHg 59%
    13:00 +18°C° 0 mm 3 m/s 757 mmHg 60%
    14:00 +18°C° 0 mm 4 m/s 758 mmHg 61%
    15:00 +18°C° 0.1 mm 4 m/s 758 mmHg 66%
    16:00 +17°C° 0.1 mm 4 m/s 758 mmHg 71%
    17:00 +15°C° 0.1 mm 5 m/s 758 mmHg 76%
    18:00 +14°C° 0 mm 4 m/s 758 mmHg 82%
    19:00 +12°C° 0 mm 4 m/s 759 mmHg 87%
    20:00 +11°C° 0 mm 4 m/s 759 mmHg 93%
    21:00 +10°C° 0 mm 3 m/s 759 mmHg 93%
    22:00 +9°C° 0 mm 3 m/s 759 mmHg 93%
    23:00 +9°C° 0 mm 3 m/s 760 mmHg 94%

    29 Agosto, Quinta-feira

    Tempo Temperatura Precipitação Vento Pressão Humidade
    00:00 +9°C° 0 mm 3 m/s 760 mmHg 93%
    01:00 +9°C° 0 mm 2 m/s 760 mmHg 93%
    02:00 +8°C° 0 mm 2 m/s 760 mmHg 93%
    03:00 +8°C° 0 mm 2 m/s 760 mmHg 93%
    04:00 +9°C° 0 mm 2 m/s 760 mmHg 93%
    05:00 +9°C° 0 mm 3 m/s 760 mmHg 93%
    06:00 +11°C° 0 mm 3 m/s 760 mmHg 88%
    07:00 +13°C° 0 mm 4 m/s 760 mmHg 83%
    08:00 +14°C° 0 mm 5 m/s 761 mmHg 77%
    09:00 +15°C° 0 mm 6 m/s 761 mmHg 76%
    10:00 +16°C° 0 mm 6 m/s 761 mmHg 75%
    11:00 +17°C° 0 mm 7 m/s 761 mmHg 73%
    12:00 +17°C° 0 mm 7 m/s 761 mmHg 76%
    13:00 +17°C° 0 mm 7 m/s 760 mmHg 78%
    14:00 +16°C° 0 mm 8 m/s 760 mmHg 80%
    15:00 +16°C° 0.1 mm 7 m/s 760 mmHg 82%
    16:00 +16°C° 0.1 mm 7 m/s 760 mmHg 83%
    17:00 +16°C° 0.1 mm 6 m/s 761 mmHg 85%
    18:00 +15°C° 0 mm 6 m/s 761 mmHg 88%
    19:00 +14°C° 0 mm 5 m/s 761 mmHg 91%
    20:00 +13°C° 0 mm 4 m/s 761 mmHg 94%
    21:00 +13°C° 0 mm 4 m/s 761 mmHg 94%
    22:00 +13°C° 0 mm 4 m/s 761 mmHg 94%
    23:00 +14°C° 0 mm 4 m/s 761 mmHg 94%

    30 Agosto, Sexta-feira

    Tempo Temperatura Precipitação Vento Pressão Humidade
    00:00 +14°C° 0 mm 4 m/s 760 mmHg 94%
    01:00 +14°C° 0 mm 5 m/s 760 mmHg 94%
    02:00 +14°C° 0 mm 5 m/s 760 mmHg 95%
    03:00 +14°C° 0 mm 5 m/s 760 mmHg 94%
    04:00 +15°C° 0 mm 5 m/s 760 mmHg 93%
    05:00 +15°C° 0 mm 6 m/s 760 mmHg 92%
    06:00 +15°C° 0 mm 6 m/s 760 mmHg 89%
    07:00 +16°C° 0 mm 7 m/s 759 mmHg 87%
    08:00 +16°C° 0 mm 8 m/s 759 mmHg 85%
    09:00 +16°C° 0 mm 8 m/s 759 mmHg 85%
    10:00 +16°C° 0 mm 9 m/s 759 mmHg 86%
    11:00 +16°C° 0 mm 9 m/s 759 mmHg 87%
    12:00 +16°C° 0.1 mm 9 m/s 758 mmHg 87%
    13:00 +16°C° 0.1 mm 8 m/s 758 mmHg 87%
    14:00 +16°C° 0.1 mm 8 m/s 758 mmHg 86%
    15:00 +16°C° 0 mm 8 m/s 757 mmHg 87%
    16:00 +16°C° 0 mm 8 m/s 757 mmHg 87%
    17:00 +16°C° 0 mm 8 m/s 756 mmHg 87%
    18:00 +16°C° 0.1 mm 8 m/s 756 mmHg 88%
    19:00 +15°C° 0.1 mm 9 m/s 756 mmHg 88%
    20:00 +15°C° 0.1 mm 9 m/s 756 mmHg 89%
    21:00 +15°C° 0.3 mm 9 m/s 756 mmHg 91%
    22:00 +15°C° 0.3 mm 8 m/s 755 mmHg 92%
    23:00 +15°C° 0.3 mm 8 m/s 755 mmHg 94%

    31 Agosto, Sábado

    Tempo Temperatura Precipitação Vento Pressão Humidade
    00:00 +14°C° 0.1 mm 7 m/s 755 mmHg 94%
    01:00 +13°C° 0.1 mm 5 m/s 755 mmHg 94%
    02:00 +11°C° 0.1 mm 3 m/s 756 mmHg 94%
    03:00 +11°C° 0 mm 3 m/s 756 mmHg 94%
    04:00 +10°C° 0 mm 3 m/s 756 mmHg 94%
    05:00 +9°C° 0 mm 3 m/s 756 mmHg 94%
    06:00 +11°C° 0 mm 4 m/s 757 mmHg 89%
    07:00 +12°C° 0 mm 4 m/s 757 mmHg 84%
    08:00 +13°C° 0 mm 5 m/s 758 mmHg 79%
    09:00 +14°C° 0 mm 5 m/s 758 mmHg 75%
    10:00 +15°C° 0 mm 5 m/s 758 mmHg 70%
    11:00 +16°C° 0 mm 5 m/s 758 mmHg 65%
    12:00 +16°C° 0.1 mm 5 m/s 758 mmHg 66%
    13:00 +16°C° 0.1 mm 5 m/s 758 mmHg 66%
    14:00 +16°C° 0.1 mm 5 m/s 758 mmHg 66%
    15:00 +15°C° 0.1 mm 5 m/s 758 mmHg 71%
    16:00 +14°C° 0.1 mm 5 m/s 759 mmHg 75%
    17:00 +13°C° 0.1 mm 5 m/s 759 mmHg 79%
    18:00 +12°C° 0 mm 5 m/s 759 mmHg 82%
    19:00 +10°C° 0 mm 4 m/s 760 mmHg 86%
    20:00 +8°C° 0 mm 4 m/s 760 mmHg 89%
    21:00 +8°C° 0 mm 4 m/s 761 mmHg 90%
    22:00 +8°C° 0 mm 3 m/s 761 mmHg 91%
    23:00 +8°C° 0 mm 3 m/s 761 mmHg 92%
    Mostrar mais